Miscellaneous Local Product
Issued by NWS North Platte, NE

Home | Current Version | Previous Version | Graphics & Text | Print | Product List | Glossary On
Versions: 1 2 3 4 5 6 7 8 9 10 11 12 13 14 15 16 17 18 19 20 21 22 23 24 25 26 27 28 29 30 31 32 33 34 35 36 37 38 39 40 41 42 43 44 45 46 47 48 49 50
000
AXUS43 KLBF 161710
MISLBF


WESTERN AND NORTH CENTRAL NEBRASKA HOURLY WEATHER ROUNDUP
NATIONAL WEATHER SERVICE NORTH PLATTE NE
1100 AM CST THU NOV 16 2017

NOTE: "FAIR" INDICATES FEW OR NO CLOUDS BELOW 12,000 FEET WITH NO
SIGNIFICANT WEATHER AND/OR OBSTRUCTIONS TO VISIBILITY.

NOTE: STATIONS NOT REPORTING VARIABLES SUCH AS SKY/WEATHER OR
PRESSURE ARE PROVIDED BY RAWS AND APRS NETWORKS AND ARE NOT UNDER
NATIONAL WEATHER SERVICE QUALITY CONTROL.

...OBSERVATIONS IN AND NEAR THE EASTERN PANHANDLE OF NEBRASKA...

CITY           SKY/WX    TMP DP  RH WIND       PRES   REMARKS
PINE RIDGE     CLOUDY    54  27  35 S20G28    29.69F
GORDON         FAIR      51  28  39 S20G26    29.72F
CHADRON        SUNNY     67  23  19 SW28G35   29.68F
ALLIANCE       SUNNY     50  28  42 SW17      29.77F
SIDNEY         CLOUDY    58  26  29 SW17      29.82F
CRESCENT LAKE    N/A     44  28  53 S8          N/A
$$

...OBSERVATIONS IN NORTHERN NEBRASKA AND FAR SOUTHERN SOUTH DAKOTA...

CITY           SKY/WX    TMP DP  RH WIND       PRES   REMARKS
WINNER         FAIR      46  28  49 S33G47    29.77F
VALENTINE      SUNNY     51  29  42 S22G30    29.78F
THEDFORD       SUNNY     49  30  48 S22G29    29.85S
AINSWORTH      CLOUDY    45  30  57 S31G38    29.81F
O`NEILL        SUNNY     42  29  60 S25G36    29.93F
ORD            SUNNY     46  30  53 S20G29    29.95F
BROKEN BOW     CLOUDY    48  31  51 S25G37    29.92F
VALENTINE NWR    N/A     46  28  48 S23G30      N/A
HALSEY           N/A     46  27  47 S15G30      N/A
BUTTE            N/A     40  29  64 SE20G31     N/A  WCI  30
CHAMBERS         N/A     44  30  57 SW6G13      N/A
EWING            N/A     41  29  62 S12G22      N/A
$$

...OBSERVATIONS IN SOUTHWEST NEBRASKA AND FAR NORTHEAST COLORADO...

CITY           SKY/WX    TMP DP  RH WIND       PRES   REMARKS
HOLYOKE        FAIR      46  28  49 S3        29.85F
IMPERIAL       SUNNY     46  29  51 S9        29.87F
OGALLALA       CLOUDY    46  29  52 S9        29.86S
NORTH PLATTE   CLOUDY    49  31  49 S15       29.89F
MCCOOK         SUNNY     51  32  48 S22G36    29.92F
LEXINGTON      CLOUDY    48  31  52 S22G28    29.93F
STAPLETON        N/A     47  31  53 SE3G12      N/A
GOTHENBURG       N/A     46  29  51 S15         N/A
CALLAWAY         N/A     47  33  57 S26         N/A
$$

...OBSERVATIONS IN CENTRAL LINCOLN COUNTY AREA...

CITY           SKY/WX    TMP DP  RH WIND       PRES   REMARKS
N.P. AIRPORT   CLOUDY    49  31  49 S15       29.89F
N.P. DOWNTOWN    N/A     47  31  53 MISG        N/A
N.P. SOUTHEAST   N/A     46  30  54 S10G20      N/A
N.P. HILLCREST   N/A     47  32  56 S16G23      N/A
$$

...SOME OBSERVATIONS FROM AROUND THE REGION...

CITY           SKY/WX    TMP DP  RH WIND       PRES   REMARKS
DENVER         PTSUNNY   65  16  15 SW15      29.86F
LIMON          CLOUDY    67  16  14 SW6       29.89F
ASPEN          SUNNY     50  16  25 N9        30.08F
LARAMIE        SUNNY     55  20  25 SW16      29.88F
CASPER         CLOUDY    57  17  21 SW38G52   29.73R
CHEYENNE       SUNNY     59  23  25 S12       29.86F
SCOTTSBLUFF    SUNNY     44  27  51 E7        29.80S
GRAND ISLAND   SUNNY     44  31  60 S21G28    30.04F
OMAHA          MOSUNNY   36  23  59 S9        30.21R WCI  29
SIOUX FALLS    CLOUDY    27  21  78 SE14      30.09F WCI  16
PIERRE         CLOUDY    38  27  64 SE26G35   29.73F WCI  26
RAPID CITY     CLOUDY    47  26  44 E7        29.60F
BISMARCK       CLOUDY    30  20  66 SE21      29.80F WCI  17
KANSAS CITY    PTSUNNY   43  26  51 SE7       30.21S
HILL CITY      LGT RAIN  53  32  44 S21G33    29.99F
WICHITA        MOSUNNY   54  36  50 S17       30.14F
DODGE CITY     SUNNY     54  31  41 S24       30.03F
OKLAHOMA CITY  CLOUDY    57  41  55 SE9       30.14F
DALLAS         PTSUNNY   68  59  73 VRB3      30.10F HAZE
AMARILLO       SUNNY     57  39  51 S22G29    30.08F
$$




USA.gov is the U.S. government's official web portal to all federal, state and local government web resources and services.